STARLINK-1414 (45690 NORAD) Tracking and Keplerian Element Data

This shows tracking and keplerian element data for the satellite.

Feedback or suggestion? Click here.




ElementValue
Catalog45690
NameSTARLINK-1414
Epoch Orbit181
Epoch Day191.91670139
Epoch Year2020
RAAN353.4736
Inclination52.9992
Eccentricity0.0001338
Argument of Perigee67.969
Mean Anonmoly156.4593
Mean Motion15.62709455
Decay Rate0.00058316
L11 45690U 20035AK 20191.91670139 .00058316 00000-0 63921-3 0 9990
L22 45690 52.9992 353.4736 0001338 67.9690 156.4593 15.62709455 1812

Live tracking and technical data element details for STARLINK-1414 (NORAD 45690). STARLINK-1414 can be tracked NOW for your location showing map with azimuth and elevation plus other details from your city location.

Track the satellite on the map from your city or location and see movement details for azimuth, elevation, latitude, longitude, range, height, and movement on the map or in text.







IsCatalogInMostPopularTable: catalog: 45690, numindb: 6
Update: records affected: 1



GetName: 45690 STARLINK-1414

Hit Count: updated at: Fri, 10 Jul 2020 15:09:55 GMT